Tracking 18957 objects as of 22-Jan-2018
HD Live streaming from Space Station
objects crossing your sky now

SL-16 DEB

Track SL-16 DEB now!
10-day predictions


NORAD ID: 27491
Int'l Code: 1998-043L
Perigee: 821.8 km
Apogee: 1,125.2 km
Inclination: 98.9 °
Period: 104.4 minutes
Semi major axis: 7344 km
RCS: 0.0795 m2 (small)
Launch date: July 10, 1998
Source: Commonwealth of Independent States (former USSR) (CIS)
Launch site: TYURATAM MISSILE AND SPACE COMPLEX (TTMTR)

Note: This is SATELLITE DEBRIS
aabbcc
Your satellite tracking list
Your tracking list is empty




NASA's NSSDC Master Catalog

Two Line Element Set (TLE):
1 27491U 98043L   18021.93442014 -.00000014 +00000-0 +22265-4 0  9993
2 27491 098.8887 200.2844 0206566 203.8213 155.3274 13.79304787983115
Source of the keplerian elements: AFSPC